Regional Weather Roundup
Issued by NWS

Home | Current Version | Previous Version | Graphics & Text | Print | Product List | Glossary On
Versions: 1 2 3 4 5 6 7 8 9 10 11 12 13 14 15 16 17 18 19 20 21 22 23 24 25 26 27 28 29 30 31 32 33 34 35 36 37 38 39 40 41 42 43 44 45 46 47 48 49 50
235
ASUS43 KLOT 060303
RWRIL

ILLINOIS REGIONAL WEATHER ROUNDUP
NATIONAL WEATHER SERVICE CHICAGO/ROMEOVILLE IL
900 PM CST MON DEC 05 2016

NOTE: "FAIR" INDICATES FEW OR NO CLOUDS BELOW 12,000 FEET WITH NO
SIGNIFICANT WEATHER AND/OR OBSTRUCTIONS TO VISIBILITY.

* THESE STATIONS ARE NOT UNDER NWS QUALITY CONTROL. THEY ALSO MAY NOT
  REPORT WEATHER SUCH AS PRECIPITATION OR FOG.

ILZ001-002-007-009-015-016-024-060400-
NORTHWEST ILLINOIS

CITY           SKY/WX    TMP DP  RH WIND       PRES   REMARKS
MOLINE         CLOUDY    34  30  85 E12       29.89F WCI  25
STERLING*      CLOUDY    31  30  96 SE9       29.92F WCI  23
SAVANNA*       CLOUDY    32  30  94 SE13      29.91S WCI  22
$$

ILZ003-004-008-010-011-017-018-060400-
NORTH CENTRAL ILLINOIS

CITY           SKY/WX    TMP DP  RH WIND       PRES   REMARKS
ROCKFORD       CLOUDY    31  29  92 S13       29.95F FOG     WCI  21
FREEPORT*      CLOUDY    30  29  98 SE14      29.94F FOG     WCI  19
ROCHELLE*      CLOUDY    30  30  98 SE8       29.94F WCI  23
$$

ILZ005-006-012>014-019>023-060400-
NORTHEAST ILLINOIS

CITY           SKY/WX    TMP DP  RH WIND       PRES   REMARKS
CHICAGO-OHARE  CLOUDY    31  29  92 S10       29.98R FOG     WCI  22
CHICAGO-MIDWAY CLOUDY    33  29  85 E6        29.98S WCI  28
AURORA         CLOUDY    32  30  92 E9        29.96F FOG     WCI  24
LANSING*       CLOUDY    33  33 100 E7        29.97F FOG     WCI  26
WAUKEGAN       CLOUDY    35  33  92 SE8       29.95S WCI  29
DUPAGE AIRPORT CLOUDY    31  28  89 SE7       29.96S FOG     WCI  24
KANKAKEE*      CLEAR     30  29  96 CALM      29.95F FOG
WHEELING       CLOUDY    32  30  92 S10       29.99S FOG     WCI  24
MORRIS*        CLOUDY    32  32  99 E9        29.94F FOG     WCI  24
NORTHERLY ISL    N/A     34  31  89 S8          N/A  WCI  27
$$

LMZ740>746-060400-
SOUTHERN LAKE MICHIGAN

STATION/POSITION SKY/WX   TEMP    WIND        PRES    VSBY  WAVE
                          AIR SEA DIR/SP/G                  HT/PER
                          (F)     (DEG/KT/KT) (MB)    (MI)  (FT/S)
HARRISON CRIB              36     170/ 16/ 19   N/A
BURNHAM HARBOR             33     200/  3/ 10   N/A
CALUMET HARBOR             33     150/  4/  7 1015.1R
BURNS HARBOR               33     120/  6/ 12 1015.9R
$$

ILZ025>027-034>036-040-047-049-050-058-095>099-060400-
WEST-CENTRAL ILLINOIS

CITY           SKY/WX    TMP DP  RH WIND       PRES   REMARKS
QUINCY         CLOUDY    35  34  96 SE12      29.83F FOG     WCI  27
GALESBURG*     CLOUDY    34  32  94 SE8       29.87F WCI  27
MACOMB*        CLOUDY    36  35  96 E9        29.89S WCI  29
JACKSONVILLE*  CLEAR     29  29  98 E9        29.87S FOG     WCI  21
PITTSFIELD*    MOCLDY    34  34  99 E5        29.85F FOG     WCI  30
$$

ILZ028>032-037-038-041>044-048-051>054-059>061-060400-
CENTRAL ILLINOIS

CITY           SKY/WX    TMP DP  RH WIND       PRES   REMARKS
PONTIAC        FOG       33  33 100 NE12      29.93F VSB 1   WCI  24
BLOOMINGTON    FOG       30  29  96 E7        29.91S VSB 1/2 WCI  23
DECATUR        MOCLDY    31  30  96 E5        29.89F FOG     WCI  26
PEORIA         CLOUDY    36  34  92 E7        29.90F WCI  30
LACON*         CLOUDY    33  33  99 E3        29.91F FOG
LINCOLN*       CLOUDY    33  33 100 E6        29.90F FOG     WCI  27
SPRINGFIELD    CLOUDY    34  32  92 E6        29.89S FOG     WCI  29
TAYLORVILLE    CLOUDY    34  33  96 E5        29.88S WCI  30
$$

ILZ033-039-045-046-055>057-062-063-060400-
EAST-CENTRAL ILLINOIS

CITY           SKY/WX    TMP DP  RH WIND       PRES   REMARKS
CHAMPAIGN      PTCLDY    34  31  88 E8        29.91S WCI  27
RANTOUL*       CLOUDY    35  34  94 E8        29.91F WCI  29
MATTOON        PTCLDY    35  31  85 E8        29.88F WCI  29
PARIS*         PTCLDY    34  32  94 E6        29.91S WCI  29
$$

ILZ079-100>102-060400-
SOUTHWEST ILLINOIS

CITY           SKY/WX    TMP DP  RH WIND       PRES   REMARKS
ALTON          CLOUDY    37  34  87 E7        29.87S WCI  32
BELLEVILLE     CLOUDY    38  38  97 E3        29.85S
CAHOKIA*       PTCLDY    37  33  85 E6        29.86S WCI  32
SPARTA*        CLOUDY    38  35  89 E3        29.86S
$$

ILZ064>066-069>071-074>076-080>082-084>086-088>090-092>094-060400-
SOUTH-CENTRAL ILLINOIS

CITY           SKY/WX    TMP DP  RH WIND       PRES   REMARKS
CARBONDALE     CLOUDY    40  37  89 SE10      29.84F
CAIRO*         CLOUDY    41  38  87 NE7       29.83S
EFFINGHAM*     PTCLDY    36  36 100 E6        29.89F WCI  31
CENTRALIA*     CLOUDY    38  36  92 CALM      29.85S
SALEM*         CLOUDY    37  34  87 E3        29.86F
METROPOLIS*    CLOUDY    41  38  87 E5        29.84F
$$

ILZ067-068-072-073-078-083-087-091-060400-
SOUTHEAST ILLINOIS

CITY           SKY/WX    TMP DP  RH WIND       PRES   REMARKS
LAWRENCEVILLE  CLOUDY    39  34  82 NE7       29.88F WCI  34
FLORA*         CLOUDY    36  34  92 NE5       29.87F WCI  32
FAIRFIELD*     CLOUDY    37  35  94 CALM      29.85F
HARRISBURG*    CLOUDY    40  37  88 E8        29.85F
ROBINSON*      PTCLDY    33  32  95 E5        29.91F WCI  28
CARMI*         PTCLDY    40  37  89 E6        29.86S
$$

ABBREVIATIONS USED IN REMARKS
   TC - TEMPERATURE IN CELSIUS
  WCI - WIND CHILL INDEX
   HX - HEAT INDEX
  VSB - VISIBILITY
$$





USA.gov is the U.S. government's official web portal to all federal, state and local government web resources and services.